When you browse on this site, cookies collect data to enhance your experience and personalize the content and advertising you see.
Visit our Privacy Policy to learn more. By continuing to use the site, you agree to this use of cookies and data.
  • Em Portugal
  • Lista de países
  • Para 7 dias
  • Temperatura da água
  • Mapa do tempo
  • Widgets de tempo
  • user-avatar
    Iniciar Sessão

    Previsão horária em Sizikova

    Hoje, 3 Junho, Quarta-feira

    Tempo Temperatura Precipitação Vento Pressão Humidade
    00:00 +8°C° 0 mm 1 m/s 748 mmHg 75%
    01:00 +7°C° 0 mm 1 m/s 748 mmHg 76%
    02:00 +7°C° 0 mm 1 m/s 748 mmHg 78%
    03:00 +6°C° 0 mm 2 m/s 748 mmHg 80%
    04:00 +6°C° 0 mm 2 m/s 748 mmHg 82%
    05:00 +7°C° 0 mm 2 m/s 748 mmHg 75%
    06:00 +9°C° 0 mm 2 m/s 748 mmHg 67%
    07:00 +12°C° 0 mm 2 m/s 748 mmHg 59%
    08:00 +13°C° 0 mm 2 m/s 748 mmHg 54%
    09:00 +14°C° 0 mm 2 m/s 748 mmHg 49%
    10:00 +15°C° 0 mm 2 m/s 747 mmHg 43%
    11:00 +16°C° 0 mm 2 m/s 747 mmHg 43%
    12:00 +16°C° 0 mm 3 m/s 747 mmHg 42%
    13:00 +17°C° 0 mm 3 m/s 747 mmHg 41%
    14:00 +17°C° 0 mm 2 m/s 747 mmHg 41%
    15:00 +17°C° 0 mm 2 m/s 747 mmHg 40%
    16:00 +17°C° 0 mm 2 m/s 747 mmHg 40%
    17:00 +16°C° 0 mm 2 m/s 747 mmHg 46%
    18:00 +16°C° 0 mm 2 m/s 747 mmHg 53%
    19:00 +15°C° 0 mm 1 m/s 747 mmHg 59%
    20:00 +13°C° 0 mm 1 m/s 747 mmHg 62%
    21:00 +11°C° 0 mm 1 m/s 748 mmHg 66%
    22:00 +9°C° 0 mm 1 m/s 748 mmHg 69%
    23:00 +8°C° 0 mm 1 m/s 748 mmHg 71%

    Amanhã, 4 Junho, Quinta-feira

    Tempo Temperatura Precipitação Vento Pressão Humidade
    00:00 +8°C° 0 mm 1 m/s 749 mmHg 73%
    01:00 +7°C° 0 mm 1 m/s 749 mmHg 76%
    02:00 +7°C° 0 mm 1 m/s 749 mmHg 77%
    03:00 +7°C° 0 mm 1 m/s 749 mmHg 78%
    04:00 +7°C° 0 mm 1 m/s 750 mmHg 80%
    05:00 +9°C° 0 mm 1 m/s 750 mmHg 74%
    06:00 +11°C° 0 mm 1 m/s 750 mmHg 67%
    07:00 +13°C° 0 mm 1 m/s 750 mmHg 61%
    08:00 +14°C° 0 mm 2 m/s 750 mmHg 55%
    09:00 +15°C° 0 mm 2 m/s 750 mmHg 49%
    10:00 +16°C° 0 mm 2 m/s 751 mmHg 42%
    11:00 +17°C° 0 mm 2 m/s 750 mmHg 40%
    12:00 +18°C° 0 mm 2 m/s 750 mmHg 38%
    13:00 +20°C° 0 mm 1 m/s 750 mmHg 36%
    14:00 +19°C° 0 mm 2 m/s 750 mmHg 36%
    15:00 +19°C° 0 mm 2 m/s 750 mmHg 36%
    16:00 +19°C° 0 mm 2 m/s 750 mmHg 36%
    17:00 +18°C° 0 mm 2 m/s 750 mmHg 43%
    18:00 +18°C° 0 mm 1 m/s 750 mmHg 50%
    19:00 +16°C° 0 mm 1 m/s 750 mmHg 57%
    20:00 +14°C° 0 mm 1 m/s 750 mmHg 60%
    21:00 +12°C° 0 mm 1 m/s 750 mmHg 63%
    22:00 +10°C° 0 mm 1 m/s 751 mmHg 66%
    23:00 +9°C° 0 mm 1 m/s 751 mmHg 68%

    Depois de amanhã, 5 Junho, Sexta-feira

    Tempo Temperatura Precipitação Vento Pressão Humidade
    00:00 +9°C° 0 mm 1 m/s 751 mmHg 70%
    01:00 +8°C° 0 mm 1 m/s 751 mmHg 72%
    02:00 +8°C° 0 mm 1 m/s 751 mmHg 74%
    03:00 +8°C° 0 mm 1 m/s 752 mmHg 75%
    04:00 +8°C° 0 mm 1 m/s 752 mmHg 76%
    05:00 +9°C° 0 mm 0 m/s 752 mmHg 69%
    06:00 +12°C° 0 mm 0 m/s 752 mmHg 63%
    07:00 +14°C° 0 mm 0 m/s 752 mmHg 56%
    08:00 +16°C° 0 mm 0 m/s 752 mmHg 50%
    09:00 +19°C° 0 mm 1 m/s 752 mmHg 44%
    10:00 +21°C° 0 mm 1 m/s 752 mmHg 39%
    11:00 +21°C° 0 mm 1 m/s 752 mmHg 37%
    12:00 +22°C° 0 mm 1 m/s 752 mmHg 36%
    13:00 +22°C° 0 mm 1 m/s 752 mmHg 34%
    14:00 +22°C° 0 mm 1 m/s 752 mmHg 35%
    15:00 +21°C° 0 mm 2 m/s 752 mmHg 35%
    16:00 +21°C° 0 mm 2 m/s 752 mmHg 35%
    17:00 +21°C° 0 mm 1 m/s 751 mmHg 42%
    18:00 +20°C° 0 mm 1 m/s 751 mmHg 49%
    19:00 +19°C° 0 mm 1 m/s 751 mmHg 56%
    20:00 +16°C° 0 mm 1 m/s 752 mmHg 61%
    21:00 +14°C° 0 mm 1 m/s 752 mmHg 65%
    22:00 +12°C° 0 mm 1 m/s 752 mmHg 69%
    23:00 +12°C° 0 mm 1 m/s 752 mmHg 70%

    6 Junho, Sábado

    Tempo Temperatura Precipitação Vento Pressão Humidade
    00:00 +11°C° 0 mm 1 m/s 753 mmHg 71%
    01:00 +10°C° 0 mm 1 m/s 753 mmHg 72%
    02:00 +10°C° 0 mm 1 m/s 753 mmHg 73%
    03:00 +10°C° 0 mm 1 m/s 753 mmHg 75%
    04:00 +10°C° 0 mm 1 m/s 753 mmHg 76%
    05:00 +12°C° 0 mm 1 m/s 753 mmHg 70%
    06:00 +15°C° 0 mm 1 m/s 753 mmHg 64%
    07:00 +18°C° 0 mm 1 m/s 753 mmHg 57%
    08:00 +19°C° 0 mm 1 m/s 753 mmHg 52%
    09:00 +21°C° 0 mm 1 m/s 754 mmHg 46%
    10:00 +21°C° 0 mm 2 m/s 754 mmHg 41%
    11:00 +23°C° 0 mm 2 m/s 753 mmHg 39%
    12:00 +23°C° 0 mm 2 m/s 753 mmHg 37%
    13:00 +24°C° 0 mm 2 m/s 753 mmHg 36%
    14:00 +24°C° 0 mm 1 m/s 753 mmHg 35%
    15:00 +24°C° 0 mm 1 m/s 753 mmHg 35%
    16:00 +24°C° 0 mm 1 m/s 752 mmHg 35%
    17:00 +23°C° 0 mm 1 m/s 752 mmHg 42%
    18:00 +22°C° 0 mm 1 m/s 752 mmHg 49%
    19:00 +21°C° 0 mm 1 m/s 752 mmHg 56%
    20:00 +19°C° 0 mm 1 m/s 752 mmHg 60%
    21:00 +16°C° 0 mm 2 m/s 752 mmHg 64%
    22:00 +14°C° 0 mm 2 m/s 752 mmHg 68%
    23:00 +14°C° 0 mm 2 m/s 753 mmHg 71%

    7 Junho, Domingo

    Tempo Temperatura Precipitação Vento Pressão Humidade
    00:00 +13°C° 0 mm 2 m/s 753 mmHg 73%
    01:00 +13°C° 0 mm 2 m/s 753 mmHg 76%
    02:00 +12°C° 0 mm 2 m/s 753 mmHg 77%
    03:00 +12°C° 0 mm 2 m/s 753 mmHg 79%
    04:00 +12°C° 0 mm 2 m/s 753 mmHg 80%
    05:00 +14°C° 0 mm 1 m/s 753 mmHg 74%
    06:00 +16°C° 0 mm 1 m/s 754 mmHg 67%
    07:00 +19°C° 0 mm 1 m/s 754 mmHg 61%
    08:00 +21°C° 0 mm 1 m/s 754 mmHg 55%
    09:00 +23°C° 0 mm 1 m/s 754 mmHg 49%
    10:00 +25°C° 0 mm 1 m/s 753 mmHg 43%
    11:00 +25°C° 0 mm 1 m/s 753 mmHg 40%
    12:00 +26°C° 0 mm 2 m/s 753 mmHg 38%
    13:00 +26°C° 0 mm 2 m/s 753 mmHg 35%
    14:00 +26°C° 0 mm 2 m/s 753 mmHg 35%
    15:00 +26°C° 0 mm 2 m/s 753 mmHg 35%
    16:00 +26°C° 0 mm 2 m/s 752 mmHg 35%
    17:00 +25°C° 0 mm 2 m/s 752 mmHg 42%
    18:00 +24°C° 0 mm 2 m/s 752 mmHg 48%
    19:00 +23°C° 0 mm 1 m/s 752 mmHg 55%
    20:00 +20°C° 0 mm 2 m/s 752 mmHg 61%
    21:00 +18°C° 0 mm 2 m/s 752 mmHg 67%
    22:00 +16°C° 0 mm 2 m/s 752 mmHg 73%
    23:00 +15°C° 0 mm 2 m/s 753 mmHg 74%

    8 Junho, Segunda-feira

    Tempo Temperatura Precipitação Vento Pressão Humidade
    00:00 +15°C° 0 mm 2 m/s 753 mmHg 75%
    01:00 +14°C° 0 mm 2 m/s 753 mmHg 77%
    02:00 +14°C° 0 mm 2 m/s 753 mmHg 78%
    03:00 +13°C° 0 mm 2 m/s 753 mmHg 79%
    04:00 +13°C° 0 mm 2 m/s 753 mmHg 80%
    05:00 +15°C° 0 mm 2 m/s 753 mmHg 73%
    06:00 +17°C° 0 mm 3 m/s 753 mmHg 67%
    07:00 +19°C° 0 mm 3 m/s 753 mmHg 61%
    08:00 +21°C° 0 mm 3 m/s 753 mmHg 57%
    09:00 +22°C° 0 mm 4 m/s 753 mmHg 52%
    10:00 +25°C° 0 mm 4 m/s 752 mmHg 48%
    11:00 +26°C° 0 mm 4 m/s 752 mmHg 47%
    12:00 +27°C° 0 mm 4 m/s 752 mmHg 46%
    13:00 +27°C° 0 mm 4 m/s 752 mmHg 45%
    14:00 +27°C° 0 mm 4 m/s 752 mmHg 45%
    15:00 +28°C° 0 mm 4 m/s 751 mmHg 46%
    16:00 +28°C° 0 mm 4 m/s 751 mmHg 47%
    17:00 +27°C° 0 mm 4 m/s 751 mmHg 54%
    18:00 +25°C° 0 mm 3 m/s 751 mmHg 61%
    19:00 +24°C° 0 mm 3 m/s 751 mmHg 69%
    20:00 +22°C° 0 mm 3 m/s 751 mmHg 73%
    21:00 +20°C° 0 mm 3 m/s 751 mmHg 77%
    22:00 +19°C° 0 mm 3 m/s 751 mmHg 82%
    23:00 +18°C° 0 mm 3 m/s 751 mmHg 83%
    Mostrar mais